TimeCST,TemperatureF,Dew PointF,Humidity,Sea Level PressureIn,VisibilityMPH,Wind Direction,Wind SpeedMPH,Gust SpeedMPH,PrecipitationIn,Events,Conditions,WindDirDegrees,DateUTC
12:13 AM,32.0,24.8,75,29.94,10.0,WNW,19.6,27.6,N/A,,Overcast,300,2013-11-18 06:13:00
12:33 AM,32.0,24.8,75,29.94,10.0,NW,21.9,27.6,N/A,,Overcast,320,2013-11-18 06:33:00
12:53 AM,32.0,24.8,75,29.95,10.0,NW,18.4,24.2,N/A,,Overcast,310,2013-11-18 06:53:00
1:13 AM,32.0,24.8,75,29.95,10.0,NW,16.1,26.5,N/A,,Overcast,320,2013-11-18 07:13:00
1:33 AM,30.2,24.8,80,29.95,10.0,NNW,17.3,-,N/A,,Overcast,330,2013-11-18 07:33:00
1:53 AM,30.2,23.0,75,29.96,10.0,NW,13.8,-,N/A,,Overcast,310,2013-11-18 07:53:00
2:13 AM,30.2,23.0,75,29.98,10.0,NW,15.0,-,N/A,,Overcast,310,2013-11-18 08:13:00
2:33 AM,30.2,24.8,80,29.98,10.0,WNW,9.2,-,N/A,,Overcast,300,2013-11-18 08:33:00
2:53 AM,30.2,23.0,75,30.00,10.0,WNW,19.6,26.5,N/A,,Overcast,300,2013-11-18 08:53:00
3:13 AM,30.2,21.2,69,30.00,10.0,NW,23.0,-,N/A,,Mostly Cloudy,310,2013-11-18 09:13:00
3:33 AM,30.2,21.2,69,30.01,10.0,WNW,13.8,-,N/A,,Mostly Cloudy,300,2013-11-18 09:33:00
3:53 AM,28.4,21.2,74,30.02,10.0,WNW,12.7,-,N/A,,Scattered Clouds,300,2013-11-18 09:53:00
4:13 AM,28.4,21.2,74,30.02,10.0,WNW,12.7,-,N/A,,Scattered Clouds,290,2013-11-18 10:13:00
4:33 AM,26.6,21.2,80,30.03,10.0,WNW,12.7,-,N/A,,Clear,300,2013-11-18 10:33:00
4:53 AM,26.6,21.2,80,30.03,10.0,WNW,10.4,-,N/A,,Clear,290,2013-11-18 10:53:00
5:13 AM,26.6,21.2,80,30.05,10.0,WNW,10.4,-,N/A,,Clear,290,2013-11-18 11:13:00
5:33 AM,24.8,19.4,80,30.05,10.0,WNW,8.1,-,N/A,,Clear,290,2013-11-18 11:33:00
5:53 AM,24.8,19.4,80,30.06,10.0,WNW,9.2,-,N/A,,Clear,290,2013-11-18 11:53:00
6:13 AM,24.8,21.2,86,30.06,10.0,WNW,9.2,-,N/A,,Clear,300,2013-11-18 12:13:00
6:33 AM,24.8,21.2,86,30.06,10.0,NW,11.5,-,N/A,,Clear,310,2013-11-18 12:33:00
6:53 AM,26.6,21.2,80,30.08,10.0,WNW,9.2,-,N/A,,Clear,300,2013-11-18 12:53:00
7:13 AM,26.6,21.2,80,30.09,10.0,NW,10.4,-,N/A,,Clear,310,2013-11-18 13:13:00
7:33 AM,24.8,19.4,80,30.10,10.0,NW,5.8,-,N/A,,Clear,310,2013-11-18 13:33:00
7:53 AM,24.8,19.4,80,30.11,10.0,NW,5.8,-,N/A,,Clear,310,2013-11-18 13:53:00
8:13 AM,26.6,21.2,80,30.12,10.0,NW,6.9,-,N/A,,Scattered Clouds,320,2013-11-18 14:13:00
8:33 AM,26.6,23.0,86,30.13,10.0,NNW,10.4,-,N/A,,Overcast,330,2013-11-18 14:33:00
8:54 AM,28.4,21.2,74,30.15,10.0,NNW,12.7,-,N/A,,Overcast,340,2013-11-18 14:54:00
9:13 AM,28.4,21.2,74,30.14,10.0,NNW,13.8,-,N/A,,Mostly Cloudy,340,2013-11-18 15:13:00
9:33 AM,28.4,21.2,74,30.15,10.0,NNW,15.0,-,N/A,,Mostly Cloudy,340,2013-11-18 15:33:00
9:54 AM,30.2,21.2,69,30.16,10.0,North,12.7,-,N/A,,Scattered Clouds,350,2013-11-18 15:54:00
10:13 AM,30.2,21.2,69,30.17,10.0,North,15.0,-,N/A,,Clear,350,2013-11-18 16:13:00
10:33 AM,30.2,21.2,69,30.19,10.0,NW,13.8,-,N/A,,Scattered Clouds,310,2013-11-18 16:33:00
10:53 AM,33.8,21.2,60,30.19,10.0,NNW,12.7,-,N/A,,Clear,330,2013-11-18 16:53:00
11:13 AM,33.8,21.2,60,30.19,10.0,NW,11.5,-,N/A,,Scattered Clouds,320,2013-11-18 17:13:00
11:33 AM,33.8,21.2,60,30.19,10.0,NW,11.5,17.3,N/A,,Scattered Clouds,310,2013-11-18 17:33:00
11:54 AM,35.6,21.2,56,30.18,10.0,NNW,12.7,-,N/A,,Scattered Clouds,340,2013-11-18 17:54:00
12:13 PM,35.6,21.2,56,30.18,10.0,NW,9.2,16.1,N/A,,Clear,320,2013-11-18 18:13:00
12:33 PM,35.6,21.2,56,30.18,10.0,NW,10.4,-,N/A,,Clear,320,2013-11-18 18:33:00
12:53 PM,35.6,21.2,56,30.18,10.0,NNW,9.2,16.1,N/A,,Clear,330,2013-11-18 18:53:00
1:13 PM,35.6,21.2,56,30.18,10.0,NW,9.2,-,N/A,,Clear,320,2013-11-18 19:13:00
1:34 PM,37.4,21.2,52,30.18,10.0,NW,8.1,-,N/A,,Clear,310,2013-11-18 19:34:00
1:53 PM,37.4,21.2,52,30.18,10.0,WNW,9.2,-,N/A,,Clear,300,2013-11-18 19:53:00
2:13 PM,37.4,21.2,52,30.18,10.0,NW,10.4,-,N/A,,Clear,320,2013-11-18 20:13:00
2:33 PM,37.4,21.2,52,30.18,10.0,WNW,8.1,-,N/A,,Clear,300,2013-11-18 20:33:00
2:53 PM,37.4,21.2,52,30.18,10.0,NW,9.2,-,N/A,,Clear,320,2013-11-18 20:53:00
3:13 PM,37.4,21.2,52,30.18,10.0,NW,5.8,-,N/A,,Clear,320,2013-11-18 21:13:00
3:33 PM,37.4,21.2,52,30.17,10.0,NNW,5.8,-,N/A,,Clear,340,2013-11-18 21:33:00
3:54 PM,37.4,21.2,52,30.18,10.0,North,4.6,-,N/A,,Clear,350,2013-11-18 21:54:00
4:14 PM,35.6,21.2,56,30.18,10.0,Calm,Calm,-,N/A,,Clear,0,2013-11-18 22:14:00
4:34 PM,35.6,21.2,56,30.18,10.0,Calm,Calm,-,N/A,,Clear,0,2013-11-18 22:34:00
4:53 PM,32.0,19.4,60,30.18,10.0,Calm,Calm,-,N/A,,Clear,0,2013-11-18 22:53:00
5:13 PM,32.0,21.2,64,30.19,10.0,NE,3.5,-,N/A,,Clear,40,2013-11-18 23:13:00
5:34 PM,28.4,19.4,69,30.19,7.0,East,3.5,-,N/A,,Clear,80,2013-11-18 23:34:00
5:54 PM,26.6,19.4,74,30.19,10.0,ENE,5.8,-,N/A,,Clear,70,2013-11-18 23:54:00
6:13 PM,26.6,19.4,74,30.19,10.0,East,5.8,-,N/A,,Clear,80,2013-11-19 00:13:00
6:33 PM,26.6,19.4,74,30.19,10.0,East,5.8,-,N/A,,Clear,90,2013-11-19 00:33:00
6:53 PM,26.6,19.4,74,30.19,10.0,East,6.9,-,N/A,,Clear,90,2013-11-19 00:53:00
7:14 PM,26.6,19.4,74,30.19,10.0,East,6.9,-,N/A,,Clear,90,2013-11-19 01:14:00
7:33 PM,26.6,19.4,74,30.19,10.0,East,6.9,-,N/A,,Clear,90,2013-11-19 01:33:00
7:53 PM,26.6,19.4,74,30.18,10.0,ESE,6.9,-,N/A,,Clear,110,2013-11-19 01:53:00
8:13 PM,26.6,19.4,74,30.18,10.0,ESE,5.8,-,N/A,,Clear,110,2013-11-19 02:13:00
8:33 PM,24.8,19.4,80,30.17,10.0,ESE,8.1,-,N/A,,Clear,110,2013-11-19 02:33:00
8:53 PM,26.6,19.4,74,30.18,10.0,SE,6.9,-,N/A,,Clear,130,2013-11-19 02:53:00
9:13 PM,26.6,19.4,74,30.18,10.0,SE,5.8,-,N/A,,Clear,140,2013-11-19 03:13:00
9:33 PM,24.8,19.4,80,30.19,10.0,SE,6.9,-,N/A,,Clear,140,2013-11-19 03:33:00
9:53 PM,24.8,19.4,80,30.19,10.0,SE,5.8,-,N/A,,Clear,140,2013-11-19 03:53:00
10:13 PM,24.8,19.4,80,30.19,10.0,SE,5.8,-,N/A,,Clear,140,2013-11-19 04:13:00
10:33 PM,23.0,17.6,80,30.19,10.0,SE,4.6,-,N/A,,Clear,130,2013-11-19 04:33:00
10:53 PM,21.2,17.6,86,30.18,10.0,SE,5.8,-,N/A,,Clear,130,2013-11-19 04:53:00
11:13 PM,21.2,17.6,86,30.17,10.0,ESE,6.9,-,N/A,,Clear,120,2013-11-19 05:13:00
11:34 PM,23.0,19.4,86,30.17,10.0,ESE,5.8,-,N/A,,Clear,120,2013-11-19 05:34:00
11:53 PM,21.2,17.6,86,30.17,10.0,ESE,5.8,-,N/A,,Clear,120,2013-11-19 05:53:00